Regional Weather Roundup
Issued by NWS

Home | Current Version | Previous Version | Text Only | Print | Product List | Glossary Off
Versions: 1 2 3 4 5 6 7 8 9 10 11 12 13 14 15 16 17 18 19 20 21 22 23 24 25 26 27 28 29 30 31 32 33 34 35 36 37 38 39 40 41 42 43 44 45 46 47 48

000
ASUS45 KPSR 211110
RWRAZ

ARIZONA HOURLY REGIONAL WEATHER ROUNDUP
NATIONAL WEATHER SERVICE PHOENIX AZ
400 AM MST WED JUN 21 2017

NOTE: FAIR INDICATES FEW OR NO CLOUDS BELOW 12,000 FEET WITH NO
SIGNIFICANT WEATHER AND/OR OBSTRUCTIONS TO VISIBILITY.

AZZ001>003-036-211200-
NORTHWEST ARIZONA

CITY           SKY/WX    TMP DP  RH WIND       PRES   REMARKS
BULLHEAD CITY  CLEAR     91  27   9 CALM      29.63S
KINGMAN        CLEAR     73  25  16 CALM      29.90S
$$

AZZ004>008-015-016-018-211200-
NORTH CENTRAL ARIZONA

CITY           SKY/WX    TMP DP  RH WIND       PRES   REMARKS
GRAND CANYON   CLEAR     49  30  48 CALM      30.22S
PRESCOTT       CLEAR     67  34  29 S8        30.07S
FLAGSTAFF      CLEAR     57  31  37 CALM      30.25S
PAYSON         CLEAR     73  36  25 CALM      30.11S
PAGE           CLEAR     79  32  18 W5        29.98R
$$

AZZ009>014-017-211200-
NORTHEAST ARIZONA

CITY           SKY/WX    TMP DP  RH WIND       PRES   REMARKS
WINSLOW        PTCLDY    66  31  27 W3        30.05S
SAINT JOHNS    CLEAR     65  36  34 CALM      30.12F
WINDOW ROCK    PTCLDY    54  30  40 CALM      30.23S
SHOW LOW       PTCLDY    68  32  26 S13       30.20S
$$

AZZ540-542>544-546-548-211200-
GREATER PHOENIX AREA

CITY           SKY/WX    TMP DP  RH WIND       PRES   REMARKS
PHOENIX        PTCLDY    93  44  18 E7        29.67R
BUCKEYE        MOCLDY    84  37  18 NW6       29.67F
LUKE AFB       CLEAR     85  44  23 NW6       29.66S
DEER VALLEY    CLEAR     87  40  19 CALM      29.70R
SCOTTSDALE     CLEAR     90  49  24 S5        29.72R
MESA-GATEWAY   CLEAR     88  41  19 E10       29.70F
$$

AZZ539-553-211200-
SOUTHWEST MARICOPA COUNTY AND PINAL COUNTY

CITY           SKY/WX    TMP DP  RH WIND       PRES   REMARKS
CASA GRANDE      N/A    N/A N/A N/A MISG        N/A
GILA BEND      CLOUDY    90  41  17 SE3       29.66R
$$

AZZ503-504-507>509-211200-
SOUTHEAST ARIZONA

CITY           SKY/WX    TMP DP  RH WIND       PRES   REMARKS
TUCSON         PTCLDY    88  39  17 CALM      29.84S
DAVIS-MONTHAN  PTCLDY    84  39  19 SE7       29.83S
NOGALES        CLEAR     76  48  37 E6        29.95S
SIERRA VISTA   PTCLDY    76  51  40 S6        30.03S
DOUGLAS        PTCLDY    73  37  27 NE5       29.98S
SAFFORD        MOCLDY    84  42  22 E8        29.87S
$$

AZZ532-211200-
SOUTHWEST ARIZONA

CITY           SKY/WX    TMP DP  RH WIND       PRES   REMARKS
YUMA           CLEAR     84  45  25 S9        29.63R
$$

CAZ041-043-047-048-061-525>527-560>570-211200-
SOUTHERN CALIFORNIA

CITY           SKY/WX    TMP DP  RH WIND       PRES   REMARKS
DOWNTOWN L.A.  CLEAR     64  61  90 CALM      29.77F
L.A. AIRPORT   MOCLDY    62  62 100 W5        29.78S FOG
SAN DIEGO      CLOUDY    66  63  90 N6        29.79S
BURBANK        CLEAR     68  59  73 CALM      29.78F
ONTARIO        CLEAR     72  61  68 CALM      29.79F
RIVERSIDE      CLEAR     70  61  73 CALM      29.79S
PALM SPRINGS   CLEAR     88  49  25 SW6       29.65S
EL CENTRO NAS  CLEAR     81  53  37 S8        29.62R
IMPERIAL       CLEAR     84  61  45 SW5       29.59S
BLYTHE         PTCLDY    89  47  23 NW6       29.62R
NEEDLES        CLEAR     95  18   6 CALM      29.66R
$$

NVZ020-UTZ003-211200-
SOUTHERN NEVADA-UTAH

CITY           SKY/WX    TMP DP  RH WIND       PRES   REMARKS
LAS VEGAS      CLEAR     91  24   9 S8        29.76F
SALT LAKE CITY PTCLDY    74  45  35 SE7       30.00R
$$

NMZ009-TXZ055-211200-
NEW MEXICO-WEST TEXAS

CITY           SKY/WX    TMP DP  RH WIND       PRES   REMARKS
ALBUQUERQUE    PTCLDY    76  47  35 N6        30.13R
EL PASO        PTCLDY    83  55  38 SE12      30.01S
$$


........................KEY........................
SKY/WX - SKY CONDITION/WEATHER
TMP    - TEMPERATURE IN FAHRENHEIT
DP     - DEW POINT IN FAHRENHEIT
RH     - RELATIVE HUMIDITY IN PERCENT
WIND   - DIRECTION AND SPEED IN MILES PER HOUR (MPH)
VRB    - VARIABLE WIND DIRECTION
PRES   - MEAN SEA LEVEL PRESSURE IN INCHES OF MERCURY
         F - FALLING PRESSURE   R - RISING PRESSURE
         S - STEADY PRESSURE
VSB    - VISIBILITY IN MILES
HX     - HEAT INDEX IN FAHRENHEIT
WCI    - WIND CHILL INDEX IN FAHRENHEIT
TC     - TEMPERATURE IN CELSIUS WHICH IS ALSO KNOWN AS
         TEMPERATURE IN CENTIGRADE
AFB    - AIR FORCE BASE
         LUKE AFB IS LUKE AIR FORCE BASE
         DAVIS-MONTHAN IS DAVIS-MONTHAN AIR FORCE BASE
NAS    - NAVAL AIR STATION
         EL CENTRO NAS IS EL CENTRO NAVAL AIR STATION
N/A    - NOT AVAILABLE





USA.gov is the U.S. government's official web portal to all federal, state and local government web resources and services.